Weather History for Hazlehurst, GA

Change the Weather History Date:

Monday, January 7, 2013

  Actual Average Record
Temperature  
Mean Temperature 44 °F -  
Max Temperature 75 °F 57 °F 75 °F (2013)
Min Temperature 33 °F 32 °F 16 °F (2014)
Degree Days  
Heating Degree Days 22    
Moisture  
Dew Point 38 °F    
Average Humidity 78    
Maximum Humidity 100    
Minimum Humidity 55    
Precipitation  
Precipitation 0.00 in - - ()
Sea Level Pressure  
Sea Level Pressure 30.30 in    
Wind  
Wind Speed 5 mph (NE)    
Max Wind Speed 13 mph    
Max Gust Speed 18 mph    
Visibility 10 miles    
Events      
Averages and records for this station are not official NWS values.
T = Trace of Precipitation, MM = Missing Value Source: NWS Daily Summary

Daily Weather History Graph

Daily Weather History Graph

Search for Another Location

Airport:

Trip Planner

Search our weather history database for the weather conditions in past years. The results will help you decide how hot, cold, wet, or windy it might be!

Date:

Astronomy

Jan. 07, 2013 Rise Set
Actual Time 7:31 AM EST 5:42 PM EST
Civil Twilight 7:05 AM EST 6:09 PM EST
Nautical Twilight 6:34 AM EST 6:39 PM EST
Astronomical Twilight 6:05 AM EST 7:09 PM EST
Moon 2:58 AM EST (1/7) 1:49 PM EST (1/7)
Length of Visible Light 11h 04m
Length of Day
10h 10m
Waning Crescent, 23% of the Moon is Illuminated
Jan 7
Waning Crescent
Jan 11
New
Jan 18
First Quarter
Jan 26
Full
Feb 3
Last Quarter

Hourly Weather History & Observations

Time (EST) Temp. Windchill Dew Point Humidity Pressure Visibility Wind Dir Wind Speed Gust Speed Precip Events Conditions
12:15 AM 45.9 °F 41.7 °F 43.2 °F 90% 30.24 in 10.0 mi NNW 8.1 mph 17.3 mph N/A   Clear
1:15 AM 43.9 °F 39.3 °F 40.3 °F 87% 30.24 in 10.0 mi NNW 8.1 mph - N/A   Clear
1:35 AM 43.2 °F 39.7 °F 40.1 °F 89% 30.24 in 10.0 mi NNW 5.8 mph - N/A   Clear
1:55 AM 42.8 °F 40.1 °F 39.7 °F 89% 30.24 in 10.0 mi NNW 4.6 mph - N/A   Clear
2:15 AM 41.9 °F 38.2 °F 39.2 °F 90% 30.24 in 10.0 mi North 5.8 mph - N/A   Clear
2:35 AM 41.0 °F 39.0 °F 38.7 °F 91% 30.24 in 10.0 mi North 3.5 mph - N/A   Clear
2:55 AM 40.5 °F - 38.5 °F 93% 30.24 in 10.0 mi Calm Calm - N/A   Clear
3:15 AM 39.6 °F - 38.3 °F 95% 30.25 in 10.0 mi Calm Calm - N/A   Clear
3:35 AM 39.0 °F 35.7 °F 38.3 °F 97% 30.25 in 10.0 mi North 4.6 mph - N/A   Clear
3:55 AM 38.8 °F 34.6 °F 37.8 °F 96% 30.25 in 10.0 mi North 5.8 mph - N/A   Clear
4:15 AM 38.5 °F 36.1 °F 37.6 °F 97% 30.25 in 10.0 mi North 3.5 mph - N/A   Clear
4:35 AM 37.9 °F - 37.4 °F 98% 30.25 in 10.0 mi Calm Calm - N/A   Clear
4:55 AM 36.5 °F 33.9 °F 36.5 °F 100% 30.26 in 10.0 mi NNW 3.5 mph - N/A   Clear
5:15 AM 36.1 °F 33.5 °F 36.3 °F 100% 30.26 in 10.0 mi North 3.5 mph - N/A   Clear
5:35 AM 36.7 °F 34.1 °F 36.7 °F 100% 30.26 in 10.0 mi North 3.5 mph - N/A   Clear
5:55 AM 36.5 °F 33.9 °F 36.5 °F 100% 30.27 in 10.0 mi North 3.5 mph - N/A   Clear
6:15 AM - - - N/A% 30.27 in 10.0 mi Calm Calm - N/A   Clear
6:35 AM 35.1 °F - 35.4 °F 100% 30.27 in 10.0 mi Calm Calm - N/A   Clear
6:55 AM 33.8 °F - 33.8 °F 100% 30.29 in 7.0 mi Calm Calm - N/A   Clear
7:15 AM 33.6 °F 29.4 °F 33.6 °F 100% 30.29 in 5.0 mi North 4.6 mph - N/A   Clear
7:35 AM - - - N/A% 30.30 in 10.0 mi NNE 4.6 mph - N/A   Clear
7:55 AM 35.2 °F 30.3 °F 35.4 °F 100% 30.30 in 10.0 mi NNE 5.8 mph - N/A   Clear
8:15 AM 35.8 °F 31.9 °F 36.0 °F 100% 30.31 in 10.0 mi North 4.6 mph - N/A   Clear
8:35 AM 37.2 °F 34.7 °F 36.7 °F 98% 30.32 in 10.0 mi NNE 3.5 mph - N/A   Clear
8:55 AM 38.5 °F 34.1 °F 37.0 °F 95% 30.33 in 10.0 mi NE 5.8 mph - N/A   Clear
9:15 AM 39.9 °F 35.8 °F 37.4 °F 91% 30.34 in 10.0 mi ENE 5.8 mph - N/A   Clear
9:35 AM 41.0 °F 39.0 °F 37.4 °F 87% 30.35 in 10.0 mi ENE 3.5 mph - N/A   Clear
9:55 AM 42.8 °F 39.3 °F 37.6 °F 82% 30.35 in 10.0 mi East 5.8 mph - N/A   Clear
10:15 AM 43.5 °F 39.4 °F 37.2 °F 78% 30.35 in 10.0 mi ENE 6.9 mph - N/A   Clear
10:35 AM 45.5 °F 41.8 °F 37.6 °F 74% 30.35 in 10.0 mi East 6.9 mph - N/A   Clear
10:55 AM 47.7 °F - 37.8 °F 69% 30.35 in 10.0 mi ENE 8.1 mph - N/A   Clear
11:15 AM 48.9 °F - 36.5 °F 62% 30.34 in 10.0 mi East 12.7 mph 18.4 mph N/A   Clear
11:35 AM 49.8 °F - 36.5 °F 60% 30.33 in 10.0 mi ENE 9.2 mph 18.4 mph N/A   Clear
11:55 AM 51.6 °F - 36.9 °F 57% 30.33 in 10.0 mi NE 10.4 mph - N/A   Clear
12:15 PM 52.3 °F - 36.5 °F 55% 30.32 in 10.0 mi East 6.9 mph - N/A   Clear
12:35 PM 52.3 °F - 36.5 °F 55% 30.32 in 10.0 mi ENE 8.1 mph - N/A   Clear
12:55 PM 52.5 °F - 36.7 °F 55% 30.31 in 10.0 mi ENE 6.9 mph - N/A   Clear
1:15 PM 52.7 °F - 37.2 °F 56% 30.30 in 10.0 mi NE 8.1 mph - N/A   Clear
1:35 PM 53.1 °F - 37.6 °F 56% 30.30 in 10.0 mi ENE 8.1 mph - N/A   Clear
1:55 PM 53.4 °F - 37.8 °F 55% 30.30 in 10.0 mi ENE 6.9 mph - N/A   Clear
2:15 PM 54.0 °F - 38.1 °F 55% 30.30 in 10.0 mi East 4.6 mph - N/A   Clear
2:35 PM 54.1 °F - 38.5 °F 55% 30.30 in 10.0 mi East 4.6 mph - N/A   Clear
2:55 PM 53.8 °F - 38.7 °F 57% 30.30 in 10.0 mi East 3.5 mph - N/A   Clear
3:15 PM 53.6 °F - 38.8 °F 57% 30.29 in 10.0 mi ENE 5.8 mph - N/A   Clear
3:35 PM 53.6 °F - 38.8 °F 57% 30.29 in 10.0 mi NE 5.8 mph - N/A   Clear
3:55 PM 53.8 °F - 39.2 °F 58% 30.31 in 10.0 mi ENE 4.6 mph - N/A   Scattered Clouds
4:15 PM 54.5 °F - 39.0 °F 56% 30.31 in 10.0 mi ENE 4.6 mph - N/A   Clear
4:35 PM 53.8 °F - 38.8 °F 57% 30.32 in 10.0 mi Calm Calm - N/A   Clear
4:55 PM 53.2 °F - 39.6 °F 60% 30.31 in 10.0 mi NE 4.6 mph - N/A   Clear
5:15 PM 52.7 °F - 39.9 °F 62% 30.31 in 10.0 mi Calm Calm - N/A   Clear
5:35 PM 51.6 °F - 40.1 °F 65% 30.31 in 10.0 mi Calm Calm - N/A   Clear
5:55 PM 50.5 °F - 39.7 °F 66% 30.32 in 10.0 mi Calm Calm - N/A   Clear
6:15 PM 48.7 °F - 39.9 °F 72% 30.32 in 10.0 mi ENE 3.5 mph - N/A   Clear
6:35 PM 47.7 °F - 40.3 °F 76% 30.32 in 10.0 mi Calm Calm - N/A   Clear
7:15 PM 45.5 °F 44.2 °F 40.3 °F 82% 30.32 in 10.0 mi ENE 3.5 mph - N/A   Clear
7:35 PM 44.4 °F 42.0 °F 39.9 °F 84% 30.32 in 10.0 mi ENE 4.6 mph - N/A   Clear
7:55 PM 45.1 °F 42.8 °F 39.6 °F 81% 30.32 in 10.0 mi East 4.6 mph - N/A   Scattered Clouds
8:15 PM 45.9 °F - 39.7 °F 79% 30.33 in 10.0 mi Calm Calm - N/A   Mostly Cloudy
8:35 PM 45.9 °F 44.6 °F 40.3 °F 81% 30.32 in 10.0 mi ENE 3.5 mph - N/A   Overcast
8:55 PM 45.5 °F 43.2 °F 39.9 °F 81% 30.32 in 10.0 mi ENE 4.6 mph - N/A   Mostly Cloudy
9:15 PM 45.3 °F 44.0 °F 39.6 °F 80% 30.33 in 10.0 mi East 3.5 mph - N/A   Mostly Cloudy
9:35 PM 45.5 °F 44.2 °F 39.4 °F 79% 30.33 in 10.0 mi ENE 3.5 mph - N/A   Overcast
9:55 PM 45.3 °F 44.0 °F 39.4 °F 80% 30.32 in 10.0 mi ENE 3.5 mph - N/A   Overcast
10:15 PM 45.1 °F 43.7 °F 39.2 °F 80% 30.33 in 10.0 mi ENE 3.5 mph - N/A   Overcast
10:55 PM 45.3 °F 43.0 °F 39.0 °F 79% 30.32 in 10.0 mi NE 4.6 mph - N/A   Overcast
11:15 PM 44.6 °F 42.2 °F 38.7 °F 80% 30.31 in 10.0 mi NE 4.6 mph - N/A   Overcast
11:35 PM 44.2 °F 42.7 °F 38.5 °F 80% 30.31 in 10.0 mi NE 3.5 mph - N/A   Scattered Clouds
11:55 PM 43.5 °F 41.9 °F 38.5 °F 82% 30.31 in 10.0 mi NE 3.5 mph - N/A   Scattered Clouds